QPF
0.00 0.00 0.00 0.00 0.00 0.00 0.01 0.01 0.01 0.02 0.00 0.02 0.04 0.01 0.00 0.00 0.00 0.00 0.00 0.00 0.00 0.00 0.01 0.02 0.03 0.02 0.02 0.05 0.08 0.04 0.01 0.00 0.00 0.00 0.00 0.01 0.00 0.00 0.00 0.00 0.01 0.01 0.02
0.00 0.00 0.01 0.00 0.00 0.00 0.00 0.01 0.00 0.02 0.03 0.01 0.01 0.00 0.00 0.00 0.00 0.00 0.00 0.00 0.00 0.00 0.01 0.01 0.02 0.01 0.00 0.01 0.05 0.03 0.00 0.01 0.00 0.00 0.00 0.00 0.00 0.00 0.00 0.00 0.02 0.01 0.01
0.00 0.00 0.01 0.00 0.01 0.00 0.00 0.00 0.00 0.00 0.03 0.06 0.03 0.00 0.00 0.00 0.00 0.00 0.00 0.00 0.00 0.00 0.00 0.00 0.00 0.00 0.00 0.01 0.02 0.02 0.00 0.00 0.00 0.00 0.00 0.00 0.00 0.03 0.03 0.01 0.07 0.03 0.01
0.00 0.00 0.00 0.01 0.01 0.00 0.00 0.00 0.00 0.01 0.03 0.04 0.07 0.06 0.01 0.00 0.00 0.00 0.00 0.00 0.00 0.00 0.00 0.00 0.00 0.00 0.00 0.01 0.03 0.00 0.00 0.00 0.00 0.00 0.00 0.00 0.00 0.03 0.11 0.07 0.09 0.02 0.04
0.00 0.00 0.01 0.05 0.06 0.05 0.04 0.01 0.00 0.01 0.03 0.02 0.03 0.05 0.07 0.06 0.05 0.05 0.04 0.03 0.00 0.00 0.00 0.00 0.00 0.00 0.00 0.02 0.04 0.00 0.00 0.00 0.00 0.01 0.01 0.06 0.08 0.07 0.21 0.12 0.01 0.00 0.00
0.00 0.00 0.00 0.01 0.02 0.06 0.10 0.05 0.01 0.01 0.02 0.03 0.03 0.02 0.03 0.08 0.10 0.08 0.09 0.07 0.01 0.00 0.01 0.01 0.00 0.01 0.02 0.00 0.06 0.01 0.00 0.00 0.00 0.01 0.02 0.06 0.16 0.11 0.21 0.13 0.00 0.00 0.00
0.00 0.00 0.00 0.01 0.01 0.01 0.03 0.02 0.01 0.02 0.04 0.05 0.06 0.05 0.03 0.04 0.03 0.06 0.07 0.09 0.04 0.01 0.01 0.02 0.01 0.02 0.05 0.00 0.03 0.03 0.01 0.00 0.00 0.00 0.00 0.03 0.09 0.12 0.14 0.11 0.00 0.00 0.00
0.00 0.00 0.00 0.00 0.00 0.00 0.01 0.02 0.03 0.03 0.03 0.03 0.02 0.05 0.08 0.09 0.07 0.07 0.05 0.09 0.10 0.05 0.01 0.03 0.07 0.07 0.04 0.03 0.04 0.12 0.02 0.00 0.00 0.00 0.00 0.00 0.02 0.03 0.06 0.02 0.00 0.00 0.00
0.00 0.00 0.00 0.00 0.00 0.00 0.00 0.00 0.01 0.03 0.04 0.03 0.03 0.01 0.01 0.03 0.08 0.11 0.11 0.11 0.13 0.08 0.01 0.00 0.03 0.06 0.06 0.04 0.06 0.05 0.01 0.00 0.00 0.00 0.00 0.00 0.00 0.00 0.00 0.00 0.00 0.00 0.00
0.00 0.00 0.00 0.00 0.00 0.00 0.00 0.00 0.00 0.01 0.03 0.05 0.04 0.02 0.02 0.04 0.05 0.05 0.05 0.05 0.04 0.04 0.02 0.00 0.02 0.02 0.03 0.03 0.04 0.02 0.00 0.00 0.00 0.00 0.00 0.00 0.00 0.00 0.00 0.01 0.00 0.00 0.00
0.00 0.00 0.00 0.00 0.00 0.00 0.00 0.00 0.00 0.00 0.00 0.01 0.04 0.08 0.09 0.05 0.04 0.03 0.03 0.03 0.05 0.05 0.03 0.01 0.01 0.03 0.03 0.01 0.03 0.03 0.00 0.00 0.00 0.00 0.00 0.00 0.00 0.00 0.01 0.02 0.01 0.01 0.00
0.00 0.00 0.00 0.00 0.00 0.00 0.00 0.00 0.00 0.00 0.00 0.00 0.00 0.01 0.05 0.09 0.11 0.09 0.09 0.04 0.04 0.08 0.08 0.06 0.03 0.01 0.00 0.00 0.01 0.01 0.02 0.01 0.00 0.00 0.00 0.00 0.00 0.00 0.04 0.07 0.06 0.04 0.01
0.00 0.00 0.00 0.00 0.00 0.00 0.00 0.00 0.00 0.00 0.00 0.00 0.00 0.00 0.00 0.00 0.00 0.02 0.03 0.07 0.11 0.07 0.09 0.10 0.08 0.02 0.01 0.00 0.00 0.00 0.04 0.10 0.10 0.04 0.00 0.00 0.00 0.04 0.11 0.05 0.02 0.01 0.00
0.00 0.00 0.00 0.00 0.00 0.00 0.00 0.00 0.00 0.00 0.00 0.00 0.00 0.00 0.00 0.00 0.00 0.00 0.00 0.02 0.06 0.07 0.06 0.08 0.19 0.23 0.11 0.04 0.02 0.00 0.00 0.01 0.07 0.10 0.04 0.00 0.00 0.02 0.12 0.15 0.04 0.05 0.01
0.00 0.00 0.00 0.00 0.00 0.00 0.00 0.00 0.00 0.00 0.00 0.00 0.00 0.00 0.00 0.00 0.00 0.00 0.00 0.00 0.00 0.02 0.03 0.04 0.10 0.15 0.16 0.13 0.07 0.03 0.01 0.01 0.07 0.08 0.05 0.01 0.00 0.00 0.02 0.12 0.13 0.06 0.03
0.00 0.00 0.00 0.00 0.00 0.00 0.00 0.00 0.00 0.00 0.00 0.00 0.00 0.00 0.00 0.00 0.00 0.00 0.00 0.00 0.00 0.01 0.01 0.02 0.06 0.11 0.15 0.17 0.26 0.28 0.27 0.21 0.17 0.11 0.05 0.01 0.00 0.01 0.01 0.02 0.13 0.16 0.04
0.00 0.00 0.00 0.00 0.00 0.00 0.00 0.00 0.00 0.00 0.00 0.00 0.00 0.00 0.00 0.00 0.00 0.00 0.00 0.00 0.00 0.00 0.01 0.01 0.00 0.02 0.08 0.10 0.28 0.49 0.51 0.27 0.08 0.08 0.08 0.07 0.03 0.01 0.01 0.02 0.04 0.16 0.07
0.00 0.00 0.00 0.00 0.00 0.00 0.00 0.00 0.00 0.00 0.00 0.00 0.00 0.00 0.00 0.00 0.00 0.00 0.00 0.00 0.00 0.00 0.00 0.01 0.01 0.01 0.00 0.01 0.02 0.07 0.17 0.18 0.08 0.02 0.04 0.07 0.09 0.08 0.05 0.02 0.03 0.11 0.12
0.00 0.00 0.00 0.00 0.00 0.00 0.00 0.00 0.00 0.00 0.00 0.00 0.00 0.00 0.00 0.00 0.00 0.00 0.00 0.00 0.00 0.00 0.00 0.00 0.01 0.02 0.01 0.01 0.00 0.00 0.01 0.02 0.04 0.03 0.01 0.02 0.05 0.07 0.10 0.06 0.02 0.05 0.16
0.00 0.00 0.00 0.00 0.00 0.00 0.00 0.00 0.00 0.00 0.00 0.00 0.00 0.00 0.00 0.00 0.00 0.00 0.00 0.00 0.00 0.00 0.00 0.00 0.00 0.01 0.01 0.02 0.02 0.01 0.01 0.01 0.02 0.03 0.03 0.02 0.03 0.13 0.11 0.08 0.04 0.02 0.05
0.00 0.00 0.00 0.00 0.00 0.00 0.00 0.00 0.00 0.00 0.00 0.00 0.00 0.00 0.00 0.00 0.00 0.00 0.00 0.00 0.00 0.00 0.00 0.00 0.00 0.00 0.01 0.02 0.01 0.01 0.00 0.00 0.01 0.01 0.00 0.00 0.00 0.04 0.08 0.14 0.09 0.08 0.05
0.00 0.00 0.00 0.00 0.00 0.01 0.00 0.00 0.00 0.00 0.00 0.00 0.00 0.00 0.00 0.00 0.00 0.00 0.00 0.00 0.00 0.00 0.00 0.00 0.00 0.00 0.01 0.01 0.02 0.02 0.01 0.00 0.00 0.00 0.00 0.00 0.00 0.00 0.00 0.02 0.12 0.10 0.05
0.00 0.00 0.00 0.00 0.00 0.00 0.00 0.00 0.00 0.00 0.00 0.00 0.00 0.00 0.00 0.00 0.00 0.00 0.00 0.00 0.00 0.00 0.00 0.00 0.00 0.00 0.01 0.01 0.02 0.03 0.03 0.01 0.01 0.00 0.00 0.00 0.00 0.00 0.00 0.01 0.02 0.08 0.11
0.00 0.00 0.00 0.00 0.00 0.00 0.00 0.00 0.00 0.00 0.00 0.00 0.00 0.00 0.00 0.00 0.00 0.00 0.00 0.00 0.00 0.00 0.00 0.00 0.00 0.00 0.00 0.01 0.02 0.01 0.02 0.02 0.01 0.01 0.00 0.00 0.00 0.00 0.00 0.01 0.03 0.06 0.10
0.00 0.00 0.00 0.00 0.00 0.00 0.00 0.00 0.00 0.00 0.00 0.00 0.00 0.00 0.00 0.00 0.00 0.00 0.00 0.00 0.00 0.00 0.00 0.00 0.00 0.00 0.00 0.01 0.02 0.03 0.02 0.02 0.02 0.02 0.01 0.00 0.00 0.00 0.00 0.00 0.00 0.01 0.04
0.00 0.00 0.00 0.00 0.00 0.00 0.00 0.00 0.00 0.00 0.00 0.00 0.00 0.00 0.00 0.00 0.00 0.00 0.00 0.00 0.00 0.00 0.00 0.00 0.00 0.00 0.00 0.00 0.01 0.03 0.03 0.02 0.01 0.01 0.01 0.00 0.00 0.00 0.00 0.01 0.00 0.00 0.01
MSLP
1014.87 1014.74 1014.87 1015.00 1015.05 1014.97 1015.01 1015.01 1014.96 1014.88 1014.79 1014.67 1014.55 1014.39 1014.58 1014.59 1014.57 1014.68 1014.62 1014.60 1014.53 1014.43 1014.36 1014.38 1014.52 1014.52 1014.58 1014.62 1014.75 1014.68 1014.76 1014.83 1014.95 1015.04 1015.12 1015.18 1015.13 1015.22 1015.32 1015.31 1015.29 1015.26 1015.54
1015.76 1015.06 1014.83 1014.89 1015.00 1015.01 1015.00 1015.00 1015.00 1014.99 1015.00 1014.92 1014.78 1014.76 1014.83 1014.79 1014.73 1014.77 1014.78 1014.77 1014.67 1014.58 1014.46 1014.46 1014.55 1014.64 1014.68 1014.70 1014.77 1014.94 1014.96 1015.11 1015.25 1015.35 1015.38 1015.43 1015.44 1015.45 1015.52 1015.48 1015.30 1015.72 1015.81
1015.70 1015.29 1014.77 1015.00 1015.10 1015.04 1015.05 1015.03 1015.00 1015.02 1015.05 1015.00 1014.96 1014.88 1015.03 1014.98 1014.94 1014.91 1014.92 1014.86 1014.80 1014.72 1014.71 1014.61 1014.59 1014.68 1014.72 1014.86 1014.98 1015.11 1015.23 1015.33 1015.44 1015.50 1015.36 1014.91 1015.43 1015.73 1015.76 1015.82 1015.86 1015.98 1016.06
1015.87 1015.90 1015.59 1015.50 1015.38 1015.31 1015.15 1015.04 1015.02 1015.02 1015.05 1015.07 1015.10 1015.07 1014.98 1015.01 1015.10 1015.08 1015.01 1015.05 1014.93 1014.86 1014.88 1014.85 1014.89 1014.82 1014.86 1015.05 1015.27 1015.40 1015.34 1015.49 1015.65 1015.49 1015.08 1014.53 1015.30 1015.98 1016.03 1015.97 1016.14 1016.20 1016.33
1016.14 1016.48 1016.49 1016.16 1015.98 1015.68 1015.45 1015.34 1015.21 1015.13 1015.17 1015.12 1015.07 1015.06 1015.06 1015.25 1015.21 1015.05 1014.91 1014.96 1014.99 1014.95 1014.98 1015.09 1015.11 1015.06 1015.06 1015.06 1015.37 1015.45 1015.54 1015.53 1015.64 1015.50 1015.13 1014.65 1015.23 1015.89 1016.07 1016.16 1016.36 1016.47 1016.49
1016.76 1016.75 1016.99 1016.78 1016.56 1016.43 1016.10 1015.88 1015.60 1015.37 1015.39 1015.36 1015.25 1015.11 1015.06 1015.11 1015.16 1015.09 1015.07 1015.10 1015.00 1014.92 1015.02 1015.12 1015.10 1015.10 1015.14 1015.21 1015.44 1015.43 1015.68 1015.70 1015.61 1015.29 1015.18 1015.38 1015.65 1015.89 1016.11 1016.24 1016.47 1016.66 1016.91
1016.93 1017.20 1017.30 1017.39 1017.23 1017.05 1016.76 1016.65 1016.33 1015.92 1015.64 1015.52 1015.34 1015.23 1015.17 1015.13 1015.04 1015.09 1015.13 1015.15 1014.92 1014.90 1014.98 1015.07 1015.05 1015.01 1015.05 1015.21 1015.38 1015.46 1015.52 1015.76 1015.42 1014.98 1015.22 1015.42 1015.78 1016.13 1016.26 1016.45 1016.75 1016.96 1017.03
1017.43 1017.35 1017.33 1017.40 1017.31 1017.41 1017.40 1017.07 1016.82 1016.62 1016.43 1016.24 1016.04 1015.74 1015.44 1015.02 1015.07 1015.15 1015.00 1014.86 1014.91 1014.88 1015.00 1015.03 1014.84 1014.99 1015.01 1015.08 1015.26 1015.35 1015.52 1015.70 1015.33 1014.79 1014.99 1015.18 1015.97 1016.08 1016.31 1016.60 1016.84 1017.07 1017.30
1017.92 1017.97 1017.84 1017.71 1017.64 1017.47 1017.38 1017.23 1017.18 1017.02 1016.88 1016.70 1016.68 1016.37 1015.85 1015.88 1014.85 1015.26 1015.23 1015.03 1014.92 1014.91 1014.92 1014.89 1014.82 1014.89 1015.06 1015.05 1015.21 1015.44 1015.80 1015.68 1015.24 1014.94 1015.22 1015.46 1016.02 1016.17 1016.36 1016.57 1016.85 1017.06 1017.30
1018.21 1018.15 1018.20 1018.09 1017.92 1017.64 1017.55 1017.88 1017.53 1017.09 1016.86 1016.78 1016.75 1016.43 1016.43 1015.82 1015.03 1015.26 1015.38 1015.04 1014.89 1014.73 1014.76 1014.81 1014.87 1014.84 1014.99 1015.10 1015.20 1015.48 1015.79 1015.86 1015.41 1015.02 1015.46 1015.56 1016.06 1016.20 1016.22 1016.60 1016.76 1016.97 1017.22
1018.34 1018.56 1018.43 1018.50 1018.32 1018.04 1017.77 1017.77 1017.51 1017.36 1017.12 1016.73 1016.50 1016.48 1016.00 1015.84 1016.03 1015.68 1015.61 1015.41 1015.00 1014.93 1014.60 1014.60 1014.73 1014.85 1014.89 1015.03 1015.17 1015.49 1015.83 1015.57 1015.31 1014.92 1015.24 1015.60 1016.15 1016.32 1016.19 1016.52 1016.72 1016.93 1017.23
1018.84 1019.04 1019.12 1019.01 1018.88 1018.52 1018.12 1017.96 1017.76 1017.68 1017.51 1017.34 1017.09 1016.68 1016.88 1016.81 1016.66 1016.46 1016.00 1015.46 1015.01 1014.78 1014.61 1014.34 1014.43 1014.71 1014.95 1014.90 1015.15 1015.35 1015.50 1015.36 1015.31 1015.00 1015.03 1015.42 1015.89 1016.14 1016.20 1016.41 1016.57 1016.92 1017.21
1019.64 1019.84 1019.86 1019.64 1019.46 1019.14 1018.73 1018.46 1018.23 1018.07 1017.88 1017.77 1017.70 1017.56 1017.50 1017.21 1016.92 1016.58 1016.11 1015.59 1015.11 1014.60 1014.34 1014.22 1014.10 1014.28 1014.39 1014.28 1014.66 1015.12 1015.37 1015.41 1015.59 1015.49 1015.37 1015.70 1015.80 1015.91 1016.04 1016.20 1016.51 1016.82 1017.11
1019.87 1020.17 1020.22 1020.02 1019.79 1019.59 1019.27 1018.99 1018.91 1018.58 1018.46 1018.13 1018.09 1018.05 1017.52 1017.17 1017.11 1016.82 1016.22 1015.51 1015.36 1015.04 1014.82 1014.40 1014.02 1013.93 1013.80 1013.82 1014.24 1014.74 1014.96 1015.40 1015.63 1015.90 1016.06 1015.79 1015.62 1015.73 1015.77 1015.96 1016.15 1016.64 1016.97
1020.16 1020.35 1020.45 1020.45 1020.29 1020.24 1019.90 1019.72 1019.58 1019.32 1019.00 1018.79 1018.60 1018.50 1018.29 1017.72 1017.18 1016.73 1016.32 1015.82 1015.42 1015.34 1015.12 1014.92 1014.44 1014.27 1014.06 1014.00 1013.89 1014.23 1014.70 1015.00 1015.35 1015.75 1015.96 1015.79 1015.57 1015.55 1015.45 1015.88 1016.23 1016.50 1016.85
1020.73 1020.82 1020.97 1020.86 1020.65 1020.45 1020.19 1019.98 1019.77 1019.66 1019.53 1019.23 1019.06 1019.03 1018.84 1018.36 1017.82 1017.10 1016.56 1016.18 1015.66 1015.64 1015.48 1015.21 1015.16 1014.93 1014.74 1014.85 1014.61 1014.70 1014.85 1015.20 1015.30 1015.57 1015.58 1015.25 1015.25 1015.43 1015.42 1015.45 1015.92 1016.21 1016.68
1021.18 1021.43 1021.40 1021.22 1021.11 1021.00 1020.70 1020.48 1020.18 1020.20 1019.85 1019.65 1019.41 1019.28 1019.37 1018.85 1018.44 1017.76 1016.91 1016.37 1016.00 1015.74 1015.36 1015.24 1015.27 1015.12 1015.04 1015.02 1015.00 1014.76 1014.63 1015.24 1015.35 1015.33 1014.98 1015.01 1014.89 1015.03 1015.49 1015.46 1015.57 1015.98 1016.33
1021.78 1021.89 1022.01 1021.90 1021.84 1021.71 1021.60 1021.29 1021.07 1020.95 1020.53 1020.28 1019.95 1019.63 1019.61 1019.23 1018.93 1018.38 1017.49 1016.91 1016.55 1015.99 1015.47 1015.10 1015.20 1015.04 1015.03 1015.09 1015.12 1015.04 1015.10 1014.82 1014.92 1014.58 1014.94 1014.58 1014.77 1014.78 1015.13 1015.37 1015.44 1015.68 1016.06
1022.58 1022.63 1022.72 1022.80 1022.72 1022.53 1022.20 1022.02 1021.81 1021.54 1021.23 1020.81 1020.59 1020.17 1019.79 1019.49 1019.28 1018.91 1018.10 1017.44 1016.98 1016.27 1015.64 1015.54 1015.33 1014.98 1014.81 1014.86 1014.96 1014.84 1014.88 1014.97 1014.94 1014.52 1014.63 1014.32 1014.33 1014.39 1014.68 1014.95 1015.24 1015.40 1015.63
1023.01 1023.36 1023.52 1023.44 1023.44 1023.28 1022.96 1022.55 1022.12 1021.83 1021.47 1021.31 1020.97 1020.60 1020.07 1019.78 1019.59 1019.26 1018.66 1017.98 1017.43 1016.74 1016.09 1015.93 1015.64 1014.96 1014.86 1014.69 1014.62 1014.62 1014.47 1014.40 1014.36 1014.36 1014.18 1013.92 1013.96 1014.08 1014.14 1014.30 1014.76 1015.14 1015.30
1023.64 1023.64 1023.87 1023.85 1023.73 1023.59 1023.54 1023.45 1022.99 1022.28 1021.84 1021.52 1021.06 1020.48 1020.04 1019.87 1019.60 1019.35 1018.93 1018.42 1017.87 1017.40 1016.94 1016.76 1016.25 1015.63 1014.75 1014.55 1014.68 1014.46 1014.30 1014.24 1014.08 1013.87 1013.82 1013.78 1013.82 1013.67 1013.75 1014.21 1014.35 1014.66 1015.10
1023.84 1024.03 1024.16 1024.28 1024.27 1024.06 1023.93 1023.72 1023.66 1022.93 1022.13 1021.57 1020.97 1020.77 1020.26 1019.93 1019.51 1019.21 1019.01 1018.60 1018.08 1017.72 1017.36 1017.10 1016.52 1015.85 1015.16 1014.52 1014.43 1014.20 1014.06 1013.64 1013.64 1013.31 1013.21 1013.28 1013.41 1013.54 1013.56 1013.86 1014.13 1014.08 1014.44
1023.72 1023.87 1023.77 1023.88 1023.82 1023.84 1023.68 1023.33 1022.83 1022.56 1021.93 1021.42 1021.02 1020.71 1020.41 1020.13 1019.68 1019.03 1018.64 1018.33 1018.11 1017.69 1017.25 1017.14 1016.96 1016.44 1015.64 1014.96 1014.43 1014.37 1013.89 1013.28 1012.78 1012.93 1012.94 1012.98 1013.07 1013.25 1013.34 1013.64 1013.87 1013.88 1013.93
1023.68 1023.89 1024.12 1023.97 1023.92 1023.59 1023.62 1023.31 1022.96 1022.54 1022.12 1021.76 1021.21 1020.64 1020.30 1019.84 1019.24 1018.86 1018.44 1018.19 1017.85 1017.50 1017.15 1016.76 1016.66 1016.55 1016.01 1015.08 1014.50 1013.97 1013.80 1013.93 1013.42 1013.30 1013.12 1013.06 1013.31 1013.51 1013.53 1013.54 1013.56 1013.59 1013.84
1023.91 1024.06 1023.92 1023.60 1023.68 1023.59 1023.49 1023.33 1022.87 1022.45 1022.16 1021.65 1021.16 1020.43 1020.08 1019.64 1019.13 1018.64 1018.15 1017.88 1017.68 1017.35 1017.05 1016.70 1016.25 1016.28 1016.08 1015.53 1015.05 1014.27 1013.75 1013.47 1013.61 1013.64 1013.36 1013.20 1013.35 1013.21 1013.25 1013.42 1013.24 1013.29 1013.45
1024.06 1024.16 1024.06 1023.84 1023.64 1023.55 1023.24 1023.11 1022.77 1022.30 1021.97 1021.49 1021.02 1020.28 1019.75 1019.43 1019.16 1018.62 1018.13 1017.69 1017.48 1017.13 1016.68 1016.38 1016.26 1016.02 1015.83 1015.56 1015.21 1014.64 1014.04 1013.32 1013.05 1013.22 1013.24 1013.00 1012.96 1012.82 1013.08 1013.25 1013.42 1013.12 1013.30
Thickness
5709 5710 5710 5708 5706 5706 5705 5704 5703 5703 5704 5705 5705 5707 5706 5705 5705 5704 5704 5703 5704 5704 5704 5704 5703 5703 5703 5702 5701 5700 5700 5699 5699 5698 5698 5698 5699 5698 5697 5698 5699 5701 5700
5700 5704 5707 5706 5704 5703 5702 5701 5700 5699 5698 5698 5699 5700 5699 5700 5700 5699 5699 5698 5699 5699 5700 5700 5700 5699 5699 5699 5698 5696 5696 5695 5695 5694 5694 5695 5695 5695 5694 5695 5696 5694 5695
5697 5698 5701 5699 5697 5697 5696 5696 5695 5695 5694 5694 5693 5694 5692 5693 5693 5693 5693 5693 5694 5695 5694 5695 5695 5695 5695 5693 5693 5692 5692 5692 5691 5691 5693 5696 5693 5691 5691 5690 5691 5690 5690
5693 5692 5692 5690 5690 5689 5689 5690 5690 5689 5689 5689 5688 5688 5688 5688 5687 5686 5687 5686 5688 5689 5689 5689 5689 5690 5690 5688 5686 5686 5688 5688 5688 5689 5693 5697 5692 5688 5687 5688 5687 5687 5687
5686 5683 5682 5682 5682 5683 5684 5683 5682 5682 5681 5681 5681 5682 5682 5679 5680 5682 5683 5683 5682 5683 5683 5682 5683 5685 5685 5685 5682 5682 5683 5685 5684 5687 5690 5694 5690 5686 5686 5685 5684 5684 5684
5677 5676 5673 5673 5673 5673 5674 5674 5675 5676 5673 5673 5673 5674 5676 5676 5675 5676 5676 5676 5678 5678 5678 5676 5677 5679 5680 5680 5678 5679 5678 5679 5681 5684 5685 5685 5684 5683 5683 5681 5681 5680 5679
5672 5669 5666 5663 5662 5662 5663 5662 5664 5666 5666 5665 5667 5668 5668 5668 5669 5669 5670 5669 5673 5674 5673 5671 5672 5674 5676 5675 5675 5675 5677 5675 5679 5683 5681 5681 5679 5678 5678 5677 5676 5675 5676
5663 5662 5660 5658 5657 5654 5652 5653 5654 5655 5654 5653 5654 5657 5658 5662 5662 5662 5663 5666 5666 5667 5666 5666 5669 5669 5670 5670 5671 5671 5672 5672 5675 5679 5678 5678 5674 5675 5674 5672 5671 5671 5671
5652 5649 5648 5647 5645 5645 5647 5646 5644 5644 5645 5644 5643 5644 5648 5646 5656 5653 5652 5655 5658 5659 5659 5661 5664 5664 5663 5665 5665 5665 5664 5668 5671 5673 5672 5671 5668 5669 5669 5668 5668 5668 5667
5643 5641 5638 5636 5637 5637 5635 5631 5632 5636 5637 5636 5636 5637 5635 5639 5645 5642 5642 5647 5651 5653 5654 5655 5656 5658 5657 5659 5660 5660 5659 5661 5664 5668 5666 5666 5664 5664 5664 5664 5663 5664 5664
5639 5634 5631 5629 5628 5627 5626 5624 5625 5625 5625 5627 5629 5628 5631 5632 5630 5632 5634 5636 5643 5645 5648 5649 5649 5650 5651 5652 5654 5655 5653 5655 5658 5664 5662 5662 5658 5659 5661 5660 5660 5660 5659
5628 5624 5619 5616 5615 5614 5615 5615 5614 5612 5612 5612 5613 5617 5615 5615 5615 5617 5621 5623 5633 5637 5640 5643 5644 5643 5643 5645 5647 5648 5646 5649 5652 5656 5656 5658 5654 5654 5656 5656 5657 5656 5655
5613 5607 5603 5601 5599 5599 5600 5600 5600 5599 5599 5598 5598 5599 5600 5603 5606 5609 5612 5619 5620 5627 5633 5635 5638 5638 5638 5641 5641 5641 5640 5640 5642 5646 5645 5647 5649 5650 5651 5652 5652 5651 5650
5604 5596 5592 5588 5587 5586 5586 5585 5583 5583 5582 5584 5584 5584 5588 5592 5595 5597 5603 5610 5612 5614 5619 5622 5630 5633 5636 5637 5635 5633 5634 5632 5631 5631 5632 5634 5642 5645 5646 5647 5648 5646 5647
5594 5587 5580 5574 5570 5566 5565 5565 5565 5566 5567 5566 5567 5568 5570 5575 5581 5586 5591 5595 5601 5602 5606 5611 5616 5620 5624 5625 5627 5627 5627 5627 5625 5623 5625 5626 5632 5637 5641 5641 5639 5640 5640
5580 5573 5565 5560 5556 5553 5553 5553 5553 5553 5551 5552 5551 5550 5552 5558 5563 5571 5577 5582 5587 5590 5593 5599 5601 5604 5609 5608 5612 5614 5617 5616 5619 5617 5617 5623 5626 5628 5631 5635 5634 5635 5632
5569 5560 5553 5547 5542 5537 5537 5536 5536 5535 5537 5536 5537 5536 5535 5540 5545 5552 5561 5568 5573 5577 5582 5585 5588 5593 5597 5599 5599 5604 5605 5606 5606 5608 5609 5613 5618 5622 5621 5626 5629 5629 5628
5556 5548 5539 5532 5525 5519 5516 5515 5514 5514 5516 5518 5520 5522 5521 5524 5528 5534 5543 5551 5555 5563 5570 5575 5577 5583 5586 5588 5589 5591 5593 5598 5597 5601 5602 5609 5609 5614 5614 5616 5618 5621 5623
5539 5531 5522 5512 5505 5501 5499 5495 5495 5495 5497 5499 5501 5504 5506 5508 5511 5516 5525 5533 5539 5548 5556 5560 5566 5571 5576 5578 5579 5584 5586 5588 5590 5593 5596 5602 5603 5607 5610 5609 5611 5613 5617
5527 5515 5505 5497 5490 5485 5481 5480 5480 5480 5481 5480 5484 5486 5489 5493 5494 5498 5506 5515 5522 5531 5540 5545 5551 5561 5565 5569 5572 5574 5579 5583 5588 5591 5596 5598 5601 5602 5603 5607 5604 5605 5607
5512 5503 5492 5485 5478 5472 5466 5463 5463 5466 5468 5467 5469 5473 5477 5479 5480 5486 5491 5496 5505 5512 5519 5524 5532 5542 5554 5558 5560 5565 5569 5573 5580 5586 5590 5594 5595 5598 5599 5598 5599 5601 5601
5500 5490 5480 5470 5461 5456 5452 5451 5448 5450 5454 5458 5460 5460 5463 5465 5469 5472 5475 5482 5490 5495 5504 5509 5517 5527 5538 5548 5551 5556 5561 5570 5573 5580 5584 5588 5590 5591 5594 5593 5594 5597 5597
5490 5480 5472 5462 5455 5447 5444 5443 5443 5441 5444 5447 5449 5450 5450 5452 5456 5462 5466 5469 5474 5482 5490 5495 5501 5509 5521 5531 5539 5543 5553 5563 5572 5574 5578 5581 5584 5585 5587 5586 5588 5592 5594
5481 5470 5456 5449 5441 5438 5431 5429 5428 5429 5430 5430 5434 5439 5440 5442 5447 5451 5456 5458 5461 5467 5475 5485 5491 5496 5505 5518 5526 5535 5541 5546 5555 5561 5564 5569 5570 5572 5575 5578 5581 5585 5587
5466 5455 5446 5440 5432 5425 5420 5416 5416 5416 5415 5418 5420 5426 5429 5431 5434 5439 5444 5449 5451 5455 5461 5468 5478 5484 5491 5500 5509 5521 5530 5537 5541 5544 5553 5557 5559 5563 5568 5570 5575 5575 5578
5454 5443 5433 5425 5419 5412 5408 5405 5403 5404 5403 5405 5407 5413 5418 5419 5421 5425 5430 5436 5440 5446 5452 5458 5463 5471 5478 5486 5495 5504 5514 5525 5532 5535 5539 5547 5553 5557 5558 5560 5563 5569 5569